{"data":{"norad_id":47242,"intl_designator":"2020-097A","name":"IPM 2 & BREEZE-M R/B","alt_names":[],"object_type":"PAYLOAD","status":"ACTIVE","operator":null,"country":"CIS","launch_date":"2020-12-14","launch_site_code":"PLMSC","launch_vehicle":null,"mission":null,"orbit_class":"UNKNOWN","rcs_meters":null,"size_class":null,"mass_kg":null,"dimensions":null,"purposes":[],"wikipedia_slug":null,"has_3d_model":false,"image_url":null,"decayed_at":null,"tle_current":{"epoch":"2026-09-19T22:12:45.004896Z","epoch_age_seconds":129136,"freshness":"FRESH","line1":"1 47242U 20097A   26262.92552089 -.00000081  00000+0  00000+0 0  9993","line2":"2 47242   5.6105  75.5211 0083401 282.2606  77.0211  0.95297512 20179","mean_motion":0.95297512,"eccentricity":0.0083401,"inclination_deg":5.6105,"raan_deg":75.5211,"arg_perigee_deg":282.2606,"mean_anomaly_deg":77.0211,"bstar":0,"rev_number":2017,"period_min":1511.0572876236,"perigee_km":36877.583631281,"apogee_km":37605.165810689,"semimajor_km":43619.511720985,"source":"CELESTRAK","updated_at":"2026-09-21T09:00:07.475910Z"}}}